CEB623 RPLL-RPVD

Flight info

Callsign CEB623
Flight time 1h 3m
Altitude 37000
Route VERDE4V VERDE A461 SAJ W3 IOO B472 NANAS NANAS1W
Aircraft A320/M-SDE3FGHIRWY/LB1

Departure

Time 2026-04-14 02:42
Airport Ninoy Aquino International Airport (RPLL)

Arrival

Time 2026-04-14 03:46
Airport Sibulan Airport (RPVD)
Time Latitude Longitude Altitude Speed Heading
2026-04-14 02:25 14.52194 121.00995 69 ft 0 kts 45°
2026-04-14 02:34 14.52177 121.00978 69 ft 4 kts 45°
2026-04-14 02:34 14.52158 121.00959 60 ft 4 kts 45°
2026-04-14 02:34 14.52145 121.00945 66 ft 4 kts 45°
2026-04-14 02:34 14.52118 121.00925 64 ft 4 kts
2026-04-14 02:35 14.52103 121.00926 63 ft 4 kts 329°
2026-04-14 02:35 14.52095 121.00931 65 ft 3 kts 315°
2026-04-14 02:35 14.52114 121.00911 69 ft 4 kts 315°
2026-04-14 02:35 14.52133 121.00891 66 ft 4 kts 315°
2026-04-14 02:36 14.52152 121.00872 69 ft 4 kts 315°
2026-04-14 02:36 14.52163 121.00861 64 ft 0 kts 315°
2026-04-14 02:38 14.52176 121.00847 63 ft 6 kts 315°
2026-04-14 02:38 14.52212 121.00811 61 ft 7 kts 315°
2026-04-14 02:38 14.52256 121.00766 61 ft 11 kts 315°
2026-04-14 02:39 14.52320 121.00700 64 ft 14 kts 315°
2026-04-14 02:39 14.52396 121.00622 63 ft 17 kts 315°
2026-04-14 02:39 14.52458 121.00557 62 ft 12 kts 315°
2026-04-14 02:39 14.52494 121.00503 65 ft 7 kts 264°
2026-04-14 02:40 14.52465 121.00472 63 ft 6 kts 224°
2026-04-14 02:40 14.52434 121.00436 61 ft 9 kts 229°
2026-04-14 02:40 14.52396 121.00393 61 ft 7 kts 227°
2026-04-14 02:40 14.52371 121.00387 68 ft 2 kts 133°
2026-04-14 02:41 14.52362 121.00398 66 ft 2 kts 132°
2026-04-14 02:41 14.52355 121.00406 63 ft 1 kts 132°
2026-04-14 02:41 14.52351 121.00411 68 ft 0 kts 132°
2026-04-14 02:41 14.52304 121.00462 61 ft 34 kts 134°
2026-04-14 02:42 14.51920 121.00859 61 ft 121 kts 135°
2026-04-14 02:42 14.51160 121.01650 167 ft 179 kts 134°
2026-04-14 02:42 14.50253 121.02591 987 ft 188 kts 134°
2026-04-14 02:42 14.49312 121.03556 1999 ft 192 kts 134°
2026-04-14 02:43 14.48348 121.04544 2744 ft 200 kts 134°
2026-04-14 02:43 14.47323 121.05603 3085 ft 218 kts 133°
2026-04-14 02:43 14.46197 121.06756 3445 ft 237 kts 134°
2026-04-14 02:43 14.44938 121.07865 4291 ft 240 kts 148°
2026-04-14 02:44 14.43330 121.08366 5047 ft 249 kts 181°
2026-04-14 02:44 14.41644 121.07852 5580 ft 267 kts 213°
2026-04-14 02:44 14.40287 121.06458 6104 ft 281 kts 232°
2026-04-14 02:44 14.39081 121.04858 6989 ft 286 kts 232°
2026-04-14 02:45 14.37840 121.03221 7737 ft 293 kts 231°
2026-04-14 02:45 14.36429 121.01678 8509 ft 298 kts 218°
2026-04-14 02:45 14.34659 121.00545 9263 ft 302 kts 202°
2026-04-14 02:45 14.32639 120.99922 10002 ft 305 kts 189°
2026-04-14 02:46 14.30497 120.99527 10390 ft 324 kts 188°
2026-04-14 02:46 14.28202 120.99114 10655 ft 343 kts 187°
2026-04-14 02:46 14.25804 120.99056 11256 ft 348 kts 175°
2026-04-14 02:46 14.23378 120.99197 11968 ft 351 kts 175°
2026-04-14 02:47 14.20936 120.99340 12656 ft 353 kts 175°
2026-04-14 02:47 14.18471 120.99484 13321 ft 356 kts 175°
2026-04-14 02:47 14.15977 120.99625 13959 ft 360 kts 175°
2026-04-14 02:47 14.13465 120.99767 14578 ft 364 kts 175°
2026-04-14 02:48 14.10955 120.99905 15167 ft 368 kts 175°
2026-04-14 02:48 14.08381 121.00045 15773 ft 372 kts 175°
2026-04-14 02:48 14.05782 121.00175 16373 ft 375 kts 176°
2026-04-14 02:48 14.03159 121.00317 16939 ft 379 kts 175°
2026-04-14 02:49 14.00511 121.00461 17500 ft 383 kts 175°
2026-04-14 02:49 13.97837 121.00600 18060 ft 386 kts 175°
2026-04-14 02:49 13.95145 121.00744 18592 ft 390 kts 175°
2026-04-14 02:49 13.92420 121.00893 19111 ft 394 kts 175°
2026-04-14 02:50 13.89669 121.01047 19625 ft 398 kts 175°
2026-04-14 02:50 13.86894 121.01195 20115 ft 401 kts 175°
2026-04-14 02:50 13.84093 121.01349 20615 ft 405 kts 175°
2026-04-14 02:50 13.81272 121.01500 21062 ft 407 kts 175°
2026-04-14 02:51 13.78426 121.01651 21511 ft 411 kts 175°
2026-04-14 02:51 13.75561 121.01805 21945 ft 414 kts 175°
2026-04-14 02:51 13.72672 121.01965 22370 ft 417 kts 175°
2026-04-14 02:51 13.69759 121.02126 22793 ft 421 kts 175°
2026-04-14 02:52 13.66831 121.02288 23217 ft 424 kts 175°
2026-04-14 02:52 13.63876 121.02450 23629 ft 426 kts 175°
2026-04-14 02:52 13.60903 121.02610 24015 ft 429 kts 175°
2026-04-14 02:52 13.57909 121.02776 24396 ft 432 kts 175°
2026-04-14 02:53 13.54897 121.02941 24780 ft 435 kts 175°
2026-04-14 02:53 13.51865 121.03103 25169 ft 437 kts 175°
2026-04-14 02:53 13.48817 121.03232 25553 ft 439 kts 178°
2026-04-14 02:53 13.45745 121.03241 25917 ft 443 kts 178°
2026-04-14 02:54 13.42694 121.03262 26289 ft 444 kts 178°
2026-04-14 02:54 13.39561 121.03290 26642 ft 446 kts 178°
2026-04-14 02:54 13.36489 121.03319 26985 ft 448 kts 178°
2026-04-14 02:54 13.33355 121.03352 27333 ft 451 kts 178°
2026-04-14 02:55 13.30211 121.03379 27683 ft 453 kts 178°
2026-04-14 02:55 13.27054 121.03405 28031 ft 455 kts 178°
2026-04-14 02:55 13.23882 121.03439 28371 ft 457 kts 178°
2026-04-14 02:55 13.20695 121.03473 28700 ft 459 kts 178°
2026-04-14 02:56 13.17499 121.03498 29031 ft 461 kts 178°
2026-04-14 02:56 13.14285 121.03532 29333 ft 463 kts 178°
2026-04-14 02:56 13.11056 121.03571 29628 ft 465 kts 178°
2026-04-14 02:56 13.07814 121.03593 29932 ft 467 kts 179°
2026-04-14 02:57 13.04554 121.03625 30227 ft 468 kts 178°
2026-04-14 02:57 13.01287 121.03663 30505 ft 471 kts 178°
2026-04-14 02:57 12.98007 121.03699 30803 ft 472 kts 178°
2026-04-14 02:57 12.94708 121.03728 31074 ft 474 kts 178°
2026-04-14 02:58 12.91408 121.03759 31405 ft 474 kts 178°
2026-04-14 02:58 12.88117 121.03791 31816 ft 472 kts 178°
2026-04-14 02:58 12.84835 121.03827 32188 ft 471 kts 178°
2026-04-14 02:58 12.81561 121.03865 32593 ft 470 kts 178°
2026-04-14 02:59 12.78299 121.03898 32948 ft 469 kts 178°
2026-04-14 02:59 12.75040 121.03932 33325 ft 468 kts 178°
2026-04-14 02:59 12.71787 121.03957 33702 ft 467 kts 178°
2026-04-14 02:59 12.68584 121.03982 34065 ft 466 kts 178°
2026-04-14 03:00 12.65346 121.04008 34417 ft 465 kts 178°
2026-04-14 03:00 12.62081 121.04046 34779 ft 463 kts 178°
2026-04-14 03:00 12.58896 121.04081 35129 ft 462 kts 178°
2026-04-14 03:00 12.55684 121.04111 35479 ft 461 kts 178°
2026-04-14 03:01 12.52484 121.04141 35814 ft 459 kts 178°
2026-04-14 03:01 12.49294 121.04174 36126 ft 458 kts 178°
2026-04-14 03:01 12.46114 121.04212 36432 ft 456 kts 178°
2026-04-14 03:01 12.42942 121.04249 36704 ft 455 kts 175°
2026-04-14 03:02 12.39818 121.04611 36946 ft 451 kts 166°
2026-04-14 03:02 12.34034 121.06804 36998 ft 440 kts 148°
2026-04-14 03:03 12.29331 121.10685 36999 ft 432 kts 135°
2026-04-14 03:03 12.24964 121.14895 36998 ft 431 kts 136°
2026-04-14 03:04 12.20593 121.19081 36998 ft 431 kts 136°
2026-04-14 03:04 12.16220 121.23267 36997 ft 431 kts 136°
2026-04-14 03:05 12.11864 121.27427 37000 ft 431 kts 136°
2026-04-14 03:05 12.07481 121.31612 37002 ft 431 kts 136°
2026-04-14 03:06 12.03107 121.35790 36998 ft 430 kts 136°
2026-04-14 03:06 11.98726 121.39963 36992 ft 431 kts 136°
2026-04-14 03:07 11.94349 121.44138 36990 ft 429 kts 136°
2026-04-14 03:07 11.89975 121.48304 36989 ft 430 kts 136°
2026-04-14 03:08 11.85563 121.52508 36994 ft 431 kts 136°
2026-04-14 03:08 11.81207 121.56660 36997 ft 431 kts 136°
2026-04-14 03:09 11.76819 121.60839 37001 ft 431 kts 136°
2026-04-14 03:09 11.72433 121.65019 37004 ft 432 kts 136°
2026-04-14 03:10 11.68043 121.69200 37006 ft 432 kts 136°
2026-04-14 03:10 11.63640 121.73379 37012 ft 432 kts 136°
2026-04-14 03:11 11.59251 121.77548 37020 ft 432 kts 136°
2026-04-14 03:11 11.54849 121.81729 37027 ft 432 kts 136°
2026-04-14 03:12 11.50452 121.85913 37035 ft 432 kts 136°
2026-04-14 03:12 11.46043 121.90081 37031 ft 432 kts 136°
2026-04-14 03:13 11.41649 121.94262 37039 ft 432 kts 136°
2026-04-14 03:13 11.37258 121.98422 37034 ft 431 kts 136°
2026-04-14 03:14 11.32867 122.02589 37031 ft 432 kts 136°
2026-04-14 03:14 11.28465 122.06758 37031 ft 432 kts 136°
2026-04-14 03:15 11.24093 122.10894 37036 ft 431 kts 136°
2026-04-14 03:15 11.19698 122.15054 37030 ft 432 kts 136°
2026-04-14 03:16 11.15305 122.19206 37018 ft 431 kts 136°
2026-04-14 03:16 11.10909 122.23369 37008 ft 432 kts 136°
2026-04-14 03:17 11.06504 122.27530 37003 ft 432 kts 136°
2026-04-14 03:17 10.99901 122.33778 36999 ft 432 kts 136°
2026-04-14 03:18 10.95496 122.37932 36997 ft 431 kts 136°
2026-04-14 03:18 10.91102 122.42078 36996 ft 432 kts 136°
2026-04-14 03:19 10.86689 122.46225 36998 ft 431 kts 136°
2026-04-14 03:19 10.82809 122.49416 36941 ft 435 kts 147°
2026-04-14 03:20 10.79194 122.51299 36485 ft 437 kts 154°
2026-04-14 03:20 10.77362 122.52146 36125 ft 437 kts 154°
2026-04-14 03:20 10.74601 122.53438 35477 ft 437 kts 154°
2026-04-14 03:20 10.70910 122.55180 34581 ft 438 kts 153°
2026-04-14 03:21 10.69083 122.56047 34130 ft 438 kts 153°
2026-04-14 03:21 10.66318 122.57355 33453 ft 438 kts 153°
2026-04-14 03:21 10.63548 122.58664 32755 ft 439 kts 153°
2026-04-14 03:21 10.60773 122.59979 32056 ft 440 kts 153°
2026-04-14 03:22 10.57998 122.61296 31364 ft 441 kts 153°
2026-04-14 03:22 10.55208 122.62605 30660 ft 442 kts 153°
2026-04-14 03:22 10.52420 122.63922 29957 ft 442 kts 153°
2026-04-14 03:22 10.49629 122.65240 29257 ft 442 kts 153°
2026-04-14 03:23 10.46831 122.66558 28555 ft 442 kts 153°
2026-04-14 03:23 10.44052 122.67878 27852 ft 441 kts 152°
2026-04-14 03:23 10.41272 122.69195 27152 ft 440 kts 153°
2026-04-14 03:23 10.38499 122.70509 26442 ft 439 kts 152°
2026-04-14 03:24 10.35729 122.71817 25687 ft 439 kts 153°
2026-04-14 03:24 10.32954 122.73111 24939 ft 438 kts 153°
2026-04-14 03:24 10.30188 122.74416 24187 ft 438 kts 153°
2026-04-14 03:24 10.27429 122.75720 23434 ft 437 kts 153°
2026-04-14 03:25 10.24677 122.77021 22685 ft 434 kts 153°
2026-04-14 03:25 10.21983 122.78289 21920 ft 421 kts 153°
2026-04-14 03:25 10.19365 122.79522 21160 ft 409 kts 152°
2026-04-14 03:25 10.16824 122.80726 20419 ft 398 kts 153°
2026-04-14 03:26 10.14353 122.81894 19671 ft 387 kts 152°
2026-04-14 03:26 10.11958 122.83023 18933 ft 382 kts 153°
2026-04-14 03:26 10.09534 122.84165 18186 ft 386 kts 153°
2026-04-14 03:26 10.07083 122.85321 17480 ft 389 kts 152°
2026-04-14 03:27 10.04626 122.86483 16809 ft 390 kts 153°
2026-04-14 03:27 10.02154 122.87639 16133 ft 392 kts 153°
2026-04-14 03:27 9.99673 122.88803 15452 ft 394 kts 153°
2026-04-14 03:27 9.97188 122.89967 14782 ft 394 kts 153°
2026-04-14 03:28 9.94708 122.91138 14222 ft 391 kts 153°
2026-04-14 03:28 9.92251 122.92297 13729 ft 387 kts 153°
2026-04-14 03:28 9.89831 122.93438 13399 ft 379 kts 153°
2026-04-14 03:28 9.87464 122.94556 13089 ft 371 kts 153°
2026-04-14 03:29 9.85146 122.95639 12791 ft 363 kts 153°
2026-04-14 03:29 9.82880 122.96701 12488 ft 355 kts 153°
2026-04-14 03:29 9.80692 122.97802 12185 ft 347 kts 147°
2026-04-14 03:29 9.78820 122.99280 11903 ft 336 kts 130°
2026-04-14 03:30 9.77360 123.01086 11648 ft 328 kts 126°
2026-04-14 03:30 9.76020 123.02919 11395 ft 321 kts 124°
2026-04-14 03:30 9.74729 123.04745 11143 ft 315 kts 124°
2026-04-14 03:30 9.73473 123.06530 10892 ft 309 kts 124°
2026-04-14 03:31 9.72239 123.08289 10635 ft 303 kts 123°
2026-04-14 03:31 9.71033 123.10023 10390 ft 300 kts 124°
2026-04-14 03:31 9.69831 123.11748 10139 ft 298 kts 124°
2026-04-14 03:31 9.68639 123.13461 9888 ft 298 kts 124°
2026-04-14 03:32 9.67448 123.15173 9638 ft 297 kts 124°
2026-04-14 03:32 9.66258 123.16879 9387 ft 296 kts 124°
2026-04-14 03:32 9.65070 123.18583 9132 ft 295 kts 124°
2026-04-14 03:32 9.63888 123.20281 8878 ft 295 kts 124°
2026-04-14 03:33 9.62710 123.21977 8635 ft 294 kts 124°
2026-04-14 03:33 9.61538 123.23663 8380 ft 292 kts 124°
2026-04-14 03:33 9.60365 123.25342 8130 ft 292 kts 124°
2026-04-14 03:33 9.59198 123.27013 7880 ft 291 kts 124°
2026-04-14 03:34 9.56891 123.30322 7382 ft 289 kts 124°
2026-04-14 03:34 9.55737 123.31978 7124 ft 288 kts 124°
2026-04-14 03:34 9.54580 123.33631 6840 ft 287 kts 124°
2026-04-14 03:35 9.53441 123.35265 6539 ft 281 kts 124°
2026-04-14 03:35 9.52332 123.36857 6285 ft 273 kts 124°
2026-04-14 03:35 9.51251 123.38408 6035 ft 266 kts 124°
2026-04-14 03:35 9.50199 123.39920 5800 ft 261 kts 124°
2026-04-14 03:36 9.49158 123.41412 5570 ft 259 kts 124°
2026-04-14 03:36 9.48120 123.42898 5346 ft 258 kts 124°
2026-04-14 03:36 9.47083 123.44377 5112 ft 257 kts 124°
2026-04-14 03:36 9.46050 123.45850 4861 ft 256 kts 124°
2026-04-14 03:37 9.45025 123.47319 4606 ft 254 kts 124°
2026-04-14 03:37 9.44008 123.48778 4357 ft 253 kts 124°
2026-04-14 03:37 9.42993 123.50234 4106 ft 252 kts 124°
2026-04-14 03:37 9.41986 123.51680 3863 ft 251 kts 124°
2026-04-14 03:38 9.40893 123.53052 3605 ft 250 kts 141°
2026-04-14 03:38 9.39307 123.53688 3358 ft 248 kts 179°
2026-04-14 03:38 9.37686 123.53207 3114 ft 246 kts 215°
2026-04-14 03:38 9.36329 123.52212 3015 ft 238 kts 214°
2026-04-14 03:39 9.34932 123.51311 3004 ft 238 kts 211°
2026-04-14 03:39 9.33522 123.50435 3002 ft 238 kts 217°
2026-04-14 03:39 9.32544 123.49126 3000 ft 237 kts 253°
2026-04-14 03:39 9.32430 123.47491 2970 ft 232 kts 274°
2026-04-14 03:40 9.32529 123.45875 2840 ft 229 kts 274°
2026-04-14 03:40 9.32631 123.44267 2712 ft 228 kts 274°
2026-04-14 03:40 9.32732 123.42679 2576 ft 229 kts 274°
2026-04-14 03:40 9.32835 123.41070 2332 ft 228 kts 274°
2026-04-14 03:41 9.32933 123.39472 2092 ft 227 kts 275°
2026-04-14 03:41 9.33030 123.37908 2006 ft 219 kts 275°
2026-04-14 03:41 9.33130 123.36377 2000 ft 216 kts 276°
2026-04-14 03:41 9.33455 123.34906 1998 ft 214 kts 298°
2026-04-14 03:42 9.34377 123.33770 2001 ft 204 kts 327°
2026-04-14 03:42 9.35540 123.33036 2030 ft 194 kts 330°
2026-04-14 03:42 9.36683 123.32336 1898 ft 190 kts 330°
2026-04-14 03:42 9.37740 123.31542 1771 ft 190 kts 313°
2026-04-14 03:43 9.38365 123.30367 1640 ft 192 kts 283°
2026-04-14 03:43 9.38479 123.29083 1516 ft 175 kts 275°
2026-04-14 03:43 9.38460 123.27923 1435 ft 159 kts 261°
2026-04-14 03:43 9.37998 123.26931 1363 ft 157 kts 228°
2026-04-14 03:44 9.37093 123.26346 1273 ft 154 kts 198°
2026-04-14 03:44 9.36065 123.26037 1092 ft 153 kts 192°
2026-04-14 03:44 9.35027 123.25830 986 ft 153 kts 185°
2026-04-14 03:44 9.34004 123.25964 804 ft 147 kts 146°
2026-04-14 03:45 9.33486 123.26749 641 ft 137 kts 89°
2026-04-14 03:45 9.33517 123.27717 486 ft 137 kts 85°
2026-04-14 03:45 9.33495 123.28688 256 ft 136 kts 90°
2026-04-14 03:45 9.33447 123.29638 54 ft 131 kts 89°
2026-04-14 03:46 9.33411 123.30338 38 ft 60 kts 93°
2026-04-14 03:46 9.33402 123.30493 37 ft 5 kts 91°
2026-04-14 03:46 9.33413 123.30524 35 ft 5 kts 68°
2026-04-14 03:46 9.33398 123.30530 36 ft 2 kts 239°
2026-04-14 03:47 9.33401 123.30487 37 ft 9 kts 274°
2026-04-14 03:47 9.33408 123.30380 38 ft 7 kts 273°
2026-04-14 03:47 9.33411 123.30320 38 ft 12 kts 273°
2026-04-14 03:48 9.33416 123.30240 38 ft 11 kts 273°
2026-04-14 03:48 9.33419 123.30166 39 ft 10 kts 273°
2026-04-14 03:48 9.33423 123.30106 41 ft 8 kts 273°
2026-04-14 03:48 9.33428 123.30027 44 ft 13 kts 273°
2026-04-14 03:49 9.33432 123.29944 47 ft 10 kts 273°
2026-04-14 03:49 9.33436 123.29878 49 ft 8 kts 273°
2026-04-14 03:49 9.33439 123.29828 49 ft 7 kts 274°
2026-04-14 03:49 9.33443 123.29759 50 ft 10 kts 269°
2026-04-14 03:50 9.33405 123.29708 48 ft 8 kts 220°
2026-04-14 03:50 9.33376 123.29676 50 ft 5 kts 237°
2026-04-14 03:50 9.33372 123.29643 50 ft 4 kts 270°
2026-04-14 03:50 9.33373 123.29616 50 ft 3 kts 272°
2026-04-14 03:51 9.33365 123.29595 50 ft 4 kts 203°
2026-04-14 03:51 9.33347 123.29606 50 ft 3 kts 152°
2026-04-14 03:51 9.33330 123.29616 50 ft 3 kts 149°
2026-04-14 03:51 9.33319 123.29623 50 ft 0 kts 148°